DW0224 Weather Reports


time (UTC)temp
C
wind
direction
speed
KPH
gust
KPH
rain 1hr
cm
rain 24hr
cm
rain mn
cm
humidity
%
barometer
mb
20260503034340 11 188 0.0 0.0 0.00 0.00 0.00 78 1011.9
20260503033836 12 188 0.0 0.0 0.00 0.00 0.00 78 1011.9
20260503033334 12 188 0.0 0.0 0.00 0.00 0.00 77 1011.9
20260503032834 12 188 0.0 0.0 0.00 0.00 0.00 77 1011.7
20260503032601 12 188 0.0 0.0 0.00 0.00 0.00 77 1011.7
20260503031832 12 188 0.0 0.0 0.00 0.00 0.00 77 1011.7
20260503031559 12 188 0.0 0.0 0.00 0.00 0.00 76 1011.7
20260503030832 12 188 0.0 0.0 0.00 0.00 0.00 75 1011.7
20260503030332 12 188 0.0 0.0 0.00 0.00 0.00 75 1011.7
20260503025830 12 188 0.0 0.0 0.00 0.00 0.00 75 1011.8
20260503025555 12 188 0.0 0.0 0.00 0.00 0.00 75 1011.8
20260503024830 12 188 0.0 0.0 0.00 0.00 0.00 74 1011.8
20260503024330 12 188 0.0 0.0 0.00 0.00 0.00 74 1011.9
20260503023830 12 188 0.0 0.0 0.00 0.00 0.00 74 1011.9
20260503023331 12 188 0.0 0.0 0.00 0.00 0.00 74 1011.9
20260503022831 13 188 0.0 0.0 0.00 0.00 0.00 74 1011.9
20260503022331 13 188 0.0 0.0 0.00 0.00 0.00 74 1011.9
20260503022058 13 188 0.0 0.0 0.00 0.00 0.00 73 1011.9
20260503021330 13 188 0.0 0.0 0.00 0.00 0.00 73 1012.2
20260503020832 13 188 0.0 0.0 0.00 0.00 0.00 73 1012.2
20260503020331 13 188 0.0 0.0 0.00 0.00 0.00 74 1012.2
20260503015830 13 192 0.0 0.0 0.00 0.00 0.00 74 1012.0
20260503015557 13 192 0.0 0.0 0.00 0.00 0.00 74 1012.0
20260503014830 13 190 0.0 0.0 0.00 0.00 0.00 74 1012.0
20260503014330 13 193 0.0 0.0 0.00 0.00 0.00 74 1011.9
20260503013831 12 179 0.0 0.0 0.00 0.00 0.00 73 1011.9
20260503013330 13 179 0.0 0.0 0.00 0.00 0.00 73 1011.9
20260503013055 13 179 0.0 0.0 0.00 0.00 0.00 73 1011.9
20260503012330 13 179 0.0 0.0 0.00 0.00 0.00 73 1011.9
20260503011830 13 179 0.0 0.0 0.00 0.00 0.00 72 1011.9
20260503011330 13 179 0.0 0.0 0.00 0.00 0.00 72 1011.9
20260503011324 13 179 0.0 1.6 0.00 0.00 0.00 72 1011.9
20260503010332 13 179 0.0 1.6 0.00 0.00 0.00 72 1011.9
20260503005830 13 174 0.0 0.0 0.00 0.00 0.00 72 1011.9
20260503005331 13 174 0.0 0.0 0.00 0.00 0.00 72 1011.9
20260503005100 13 174 0.0 0.0 0.00 0.00 0.00 72 1011.9
20260503004327 13 173 0.0 1.6 0.00 0.00 0.00 71 1012.3
20260503003821 13 173 0.0 1.6 0.00 0.00 0.00 71 1012.3
20260503003559 13 171 0.0 0.0 0.00 0.00 0.00 70 1012.3
20260503002829 13 171 0.0 0.0 0.00 0.00 0.00 69 1012.4
20260503002822 13 171 0.0 0.0 0.00 0.00 0.00 69 1012.4
20260503002047 13 171 0.0 0.0 0.00 0.00 0.00 69 1012.4
20260503001313 13 171 0.0 0.0 0.00 0.00 0.00 67 1012.5
20260503001040 13 171 0.0 0.0 0.00 0.00 0.00 67 1012.5
20260503000312 13 171 0.0 0.0 0.00 0.00 0.00 66 1012.5
20260502235811 13 171 0.0 0.0 0.00 0.00 0.00 66 1012.6
20260502235309 14 171 0.0 0.0 0.00 0.00 0.00 65 1012.6
20260502235031 14 171 0.0 0.0 0.00 0.00 0.00 65 1012.6
20260502234306 14 171 0.0 0.0 0.00 0.00 0.00 64 1013.0
20260502233807 14 171 0.0 0.0 0.00 0.00 0.00 63 1013.0
20260502233800 14 171 0.0 0.0 0.00 0.00 0.00 63 1013.0
20260502232804 14 159 0.0 0.0 0.00 0.00 0.00 62 1013.0
20260502232304 14 159 0.0 0.0 0.00 0.00 0.00 62 1013.0
20260502231804 14 159 0.0 0.0 0.00 0.00 0.00 61 1013.0
20260502231303 15 159 0.0 0.0 0.00 0.00 0.00 61 1013.0
20260502230803 15 155 0.0 0.0 0.00 0.00 0.00 61 1013.0
20260502230304 14 155 0.0 1.6 0.00 0.00 0.00 61 1013.0
20260502225804 14 213 0.0 1.6 0.00 0.00 0.00 61 1012.9
20260502225304 14 213 0.0 1.6 0.00 0.00 0.00 62 1012.9
20260502224804 14 213 0.0 1.6 0.00 0.00 0.00 62 1012.9
20260502224535 14 213 0.0 0.0 0.00 0.00 0.00 60 1013.0
20260502223803 14 213 0.0 1.6 0.00 0.00 0.00 59 1013.0
20260502223304 14 213 0.0 1.6 0.00 0.00 0.00 59 1013.0
20260502223258 15 213 0.0 1.6 0.00 0.00 0.00 59 1012.8
20260502222538 15 213 0.0 1.6 0.00 0.00 0.00 58 1012.8
20260502221804 15 213 0.0 1.6 0.00 0.00 0.00 57 1012.8
20260502221304 15 213 0.0 0.0 0.00 0.00 0.00 56 1012.8
20260502221032 15 213 0.0 0.0 0.00 0.00 0.00 56 1012.8
20260502220304 15 213 0.0 0.0 0.00 0.00 0.00 56 1012.8
20260502215803 15 213 0.0 0.0 0.00 0.00 0.00 56 1012.8
20260502215535 15 213 0.0 0.0 0.00 0.00 0.00 55 1012.8
20260502214802 15 213 0.0 0.0 0.00 0.00 0.00 55 1012.8
20260502214302 15 213 0.0 0.0 0.00 0.00 0.00 55 1012.8
20260502214028 15 213 0.0 0.0 0.00 0.00 0.00 53 1012.8
20260502213303 15 213 0.0 0.0 0.00 0.00 0.00 53 1012.8
20260502212803 15 213 0.0 0.0 0.00 0.00 0.00 52 1012.8
20260502212259 16 213 0.0 0.0 0.00 0.00 0.00 52 1012.8
20260502211754 16 213 0.0 0.0 0.00 0.00 0.00 52 1012.8
20260502211536 16 213 0.0 0.0 0.00 0.00 0.00 52 1012.8
20260502210744 16 213 0.0 0.0 0.00 0.00 0.00 52 1012.8
20260502210241 16 213 0.0 0.0 0.00 0.00 0.00 51 1012.8
20260502205738 16 213 0.0 0.0 0.00 0.00 0.00 51 1012.8
20260502205237 17 213 0.0 1.6 0.00 0.00 0.00 52 1012.8
20260502204735 17 213 0.0 1.6 0.00 0.00 0.00 52 1012.8
20260502204235 17 213 0.0 1.6 0.00 0.00 0.00 50 1012.6
20260502203735 17 213 0.0 1.6 0.00 0.00 0.00 50 1012.6
20260502203232 17 213 0.0 0.0 0.00 0.00 0.00 50 1012.6
20260502202955 17 213 0.0 0.0 0.00 0.00 0.00 51 1012.6
20260502202232 17 213 0.0 0.0 0.00 0.00 0.00 50 1012.6
20260502202008 17 213 0.0 0.0 0.00 0.00 0.00 51 1012.6
20260502201231 17 213 0.0 0.0 0.00 0.00 0.00 52 1012.6
20260502200731 17 213 0.0 0.0 0.00 0.00 0.00 52 1012.6
20260502200230 17 213 0.0 0.0 0.00 0.00 0.00 51 1012.6
20260502195731 17 213 0.0 0.0 0.00 0.00 0.00 52 1012.5
20260502195231 17 213 0.0 1.6 0.00 0.00 0.00 52 1012.5
20260502194732 17 213 0.0 1.6 0.00 0.00 0.00 52 1012.5
20260502194230 17 213 0.0 1.6 0.00 0.00 0.00 51 1012.4
20260502193954 17 213 0.0 0.0 0.00 0.00 0.00 51 1012.4
20260502193228 17 213 0.0 0.0 0.00 0.00 0.00 50 1012.4
20260502192728 17 213 0.0 0.0 0.00 0.00 0.00 49 1012.3
20260502192227 17 213 0.0 0.0 0.00 0.00 0.00 49 1012.3
20260502191954 18 213 0.0 1.6 0.00 0.00 0.00 49 1012.3
20260502191224 18 213 0.0 1.6 0.00 0.00 0.00 48 1012.3
20260502190722 18 213 0.0 1.6 0.00 0.00 0.00 47 1012.3
20260502190449 18 213 0.0 1.6 0.00 0.00 0.00 47 1012.3
20260502185722 18 213 0.0 1.6 0.00 0.00 0.00 46 1012.2
20260502185222 18 213 0.0 0.0 0.00 0.00 0.00 47 1012.2
20260502184722 18 213 0.0 0.0 0.00 0.00 0.00 47 1012.2
20260502184222 18 213 0.0 0.0 0.00 0.00 0.00 47 1012.2
20260502183949 19 213 0.0 0.0 0.00 0.00 0.00 46 1012.2
20260502183220 19 213 0.0 0.0 0.00 0.00 0.00 46 1012.2
20260502182941 20 213 0.0 0.0 0.00 0.00 0.00 46 1012.1
20260502182214 20 213 0.0 0.0 0.00 0.00 0.00 45 1012.1
20260502181709 20 213 0.0 0.0 0.00 0.00 0.00 45 1012.1
20260502181659 20 213 0.0 0.0 0.00 0.00 0.00 45 1011.9
20260502180705 20 213 0.0 0.0 0.00 0.00 0.00 45 1011.9
20260502180434 21 213 0.0 0.0 0.00 0.00 0.00 45 1011.9
20260502170203 22 213 0.0 0.0 0.00 0.00 0.00 38 1012.2
20260502164205 22 263 1.6 6.4 0.00 0.00 0.00 37 1012.4
20260502163704 22 218 0.0 4.8 0.00 0.00 0.00 40 1012.4
20260502163205 22 244 0.0 3.2 0.00 0.00 0.00 42 1012.4
20260502162704 23 223 1.6 4.8 0.00 0.00 0.00 41 1012.6
20260502162205 22 231 1.6 6.4 0.00 0.00 0.00 41 1012.6
20260502161705 23 242 1.6 6.4 0.00 0.00 0.00 40 1012.6
20260502161205 23 242 1.6 6.4 0.00 0.00 0.00 41 1012.9
20260502160735 23 232 1.6 6.4 0.00 0.00 0.00 41 1012.9
20260502160727 23 260 1.6 6.4 0.00 0.00 0.00 41 1012.9
20260502152204 23 250 3.2 9.7 0.00 0.00 0.00 38 1013.2
20260502151704 23 224 3.2 11.3 0.00 0.00 0.00 36 1013.2
20260502151204 23 217 3.2 11.3 0.00 0.00 0.00 34 1013.3
20260502150704 23 251 3.2 9.7 0.00 0.00 0.00 35 1013.3
20260502150204 24 275 1.6 6.4 0.00 0.00 0.00 35 1013.3
20260502150147 24 151 1.6 6.4 0.00 0.00 0.00 33 1013.5
20260502130340 23 208 1.6 4.8 0.00 0.00 0.00 40 1014.7
20260502123100 23 76 3.2 8.0 0.00 0.00 0.00 40 1015.2
20260502122831 23 145 3.2 6.4 0.00 0.00 0.00 39 1015.3
20260502122328 23 211 1.6 6.4 0.00 0.00 0.00 39 1015.3
20260502121827 23 192 1.6 8.0 0.00 0.00 0.00 40 1015.3
20260502121332 23 209 1.6 8.0 0.00 0.00 0.00 40 1015.7
20260502120544 23 64 1.6 6.4 0.00 0.00 0.00 41 1015.7
20260502115802 22 186 3.2 6.4 0.00 0.00 0.00 42 1015.8
20260502115036 22 165 3.2 8.0 0.00 0.00 0.00 44 1015.8
20260502114805 22 178 3.2 9.7 0.00 0.00 0.00 44 1015.8
20260502114036 22 173 3.2 9.7 0.00 0.00 0.00 42 1016.1
20260502113536 22 141 3.2 6.4 0.00 0.00 0.00 41 1016.1
20260502113036 22 183 3.2 8.0 0.00 0.00 0.00 43 1016.1
20260502112536 22 222 3.2 8.0 0.00 0.00 0.00 42 1016.2
20260502112036 22 144 3.2 9.7 0.00 0.00 0.00 42 1016.2
20260502111534 22 181 3.2 9.7 0.00 0.00 0.00 42 1016.2
20260502111033 22 158 3.2 8.0 0.00 0.00 0.00 41 1016.6
20260502110534 22 147 3.2 8.0 0.00 0.00 0.00 41 1016.6
20260502110047 21 187 3.2 8.0 0.00 0.00 0.00 43 1016.6
20260502105535 21 181 3.2 8.0 0.00 0.00 0.00 45 1016.8
20260502105050 22 110 3.2 8.0 0.00 0.00 0.00 45 1016.8
20260502104804 21 140 3.2 8.0 0.00 0.00 0.00 45 1016.8
20260502104034 21 252 3.2 8.0 0.00 0.00 0.00 45 1017.0
20260502103533 21 193 3.2 9.7 0.00 0.00 0.00 45 1017.0
20260502103033 21 249 3.2 9.7 0.00 0.00 0.00 44 1017.0
20260502102800 21 153 3.2 8.0 0.00 0.00 0.00 45 1017.3
20260502102259 21 249 3.2 8.0 0.00 0.00 0.00 47 1017.3
20260502101532 21 175 3.2 8.0 0.00 0.00 0.00 44 1017.3
20260502101032 20 201 3.2 6.4 0.00 0.00 0.00 45 1017.3
20260502100554 20 192 3.2 8.0 0.00 0.00 0.00 43 1017.3
20260502100547 20 207 3.2 8.0 0.00 0.00 0.00 45 1017.3
20260502091532 19 184 1.6 6.4 0.00 0.00 0.00 49 1017.9
20260502091033 19 160 1.6 4.8 0.00 0.00 0.00 51 1018.2
20260502090532 18 192 3.2 6.4 0.00 0.00 0.00 52 1018.2
20260502071532 15 176 1.6 3.2 0.00 0.00 0.00 59 1018.9
20260502071032 15 188 1.6 4.8 0.00 0.00 0.00 60 1018.9
20260502070758 15 186 1.6 4.8 0.00 0.00 0.00 62 1018.9
20260502070045 15 197 1.6 4.8 0.00 0.00 0.00 62 1018.9
20260502065544 15 178 1.6 3.2 0.00 0.00 0.00 63 1018.9
20260502065031 14 184 1.6 3.2 0.00 0.00 0.00 65 1018.9
20260502064610 13 155 0.0 3.2 0.00 0.00 0.00 69 1018.9
20260502064601 13 171 1.6 3.2 0.00 0.00 0.00 68 1018.9
20260502063532 13 162 0.0 3.2 0.00 0.00 0.00 70 1018.9
20260502063031 13 173 0.0 1.6 0.00 0.00 0.00 69 1018.9
20260502062534 13 168 0.0 3.2 0.00 0.00 0.00 69 1018.9
20260502062234 13 168 0.0 3.2 0.00 0.00 0.00 69 1018.9
20260502061031 13 164 1.6 4.8 0.00 0.00 0.00 69 1018.9
20260502060532 13 172 0.0 4.8 0.00 0.00 0.00 70 1018.9
20260502060044 13 169 0.0 4.8 0.00 0.00 0.00 71 1018.9
20260502055533 12 178 0.0 3.2 0.00 0.00 0.00 73 1018.8
20260502055031 12 186 0.0 3.2 0.00 0.00 0.00 74 1018.8
20260502054806 12 173 0.0 3.2 0.00 0.00 0.00 74 1018.8
20260502054801 12 171 0.0 3.2 0.00 0.00 0.00 75 1018.8
20260502053755 12 172 0.0 1.6 0.00 0.00 0.00 75 1018.8
20260502053033 11 173 0.0 1.6 0.00 0.00 0.00 77 1018.8
20260502052532 11 178 0.0 1.6 0.00 0.00 0.00 77 1018.7
20260502052106 11 171 0.0 1.6 0.00 0.00 0.00 78 1018.7
20260502052057 11 171 0.0 1.6 0.00 0.00 0.00 78 1018.7
20260502051032 11 169 0.0 1.6 0.00 0.00 0.00 79 1018.5
20260502050532 11 172 0.0 0.0 0.00 0.00 0.00 79 1018.5
20260502050031 11 170 0.0 0.0 0.00 0.00 0.00 79 1018.5
20260502045532 10 173 0.0 0.0 0.00 0.00 0.00 79 1018.5
20260502045024 10 173 0.0 0.0 0.00 0.00 0.00 79 1018.5
20260502044748 10 173 0.0 0.0 0.00 0.00 0.00 78 1018.5
20260502044016 10 173 0.0 0.0 0.00 0.00 0.00 77 1018.4
20260502043735 10 173 0.0 0.0 0.00 0.00 0.00 76 1018.4
20260502043241 9 173 0.0 0.0 0.00 0.00 0.00 75 1018.4
20260502042508 9 173 0.0 0.0 0.00 0.00 0.00 75 1018.5
20260502042500 9 173 0.0 0.0 0.00 0.00 0.00 74 1018.5
20260502041517 9 173 0.0 0.0 0.00 0.00 0.00 74 1018.5
20260502041254 9 173 0.0 0.0 0.00 0.00 0.00 74 1018.4
20260502040505 9 173 0.0 0.0 0.00 0.00 0.00 74 1018.4
20260502040005 9 173 0.0 0.0 0.00 0.00 0.00 74 1018.4
20260502035505 9 173 0.0 0.0 0.00 0.00 0.00 73 1018.4
20260502035004 9 173 0.0 0.0 0.00 0.00 0.00 73 1018.4
20260502034956 9 173 0.0 0.0 0.00 0.00 0.00 72 1018.4